Location: Norton
(51.3000°N, 0.8167°E)
Time: 16:09:38
(UTC+00:00)

USA 305 - Pass Details

Date: 03 March 2021
Orbit: 567 x 574 km, 54.0° (Epoch: 13 April)

Event Time Altitude Azimuth Distance (km) Brightness Sun altitude
Rises 19:43:47 0° 281° (W) 2,781 8.0 -19.8°
Reaches altitude 10° 19:46:04 10° 285° (WNW) 1,881 6.8 -20.2°
Maximum altitude 19:50:18 61° 6° (N) 652 3.1 -20.8°
Enters shadow 19:51:05 51° 54° (NE) 728 3.1 -20.9°
